Regional Weather Roundup
Issued by NWS Goodland, KS

Home | Current Version | Previous Version | Text Only | Print | Product List | Glossary Off
Versions: 1 2 3 4 5 6 7 8 9 10 11 12 13 14 15 16 17 18 19 20 21 22 23 24 25 26 27 28 29 30 31 32 33 34 35 36 37 38 39 40 41 42 43 44 45 46 47 48 49 50

188
ASUS43 KGLD 262059
RWRGLD

GOODLAND FORECAST AREA HOURLY WEATHER ROUNDUP
NATIONAL WEATHER SERVICE GOODLAND KS
300 PM MDT FRI AUG 26 2016

...OFFICIAL OBSERVATIONS...

CITY           SKY/WX    TMP DP  RH WIND       PRES   REMARKS
GOODLAND KS    CLOUDY    64  60  87 SE9       30.07F
HILL CITY KS   PTSUNNY   75  63  66 E9        30.04F
IMPERIAL NEB   CLOUDY    66  60  81 N9        30.07F
MCCOOK NEB     CLOUDY    74  55  51 CALM      30.06F
AKRON CO       CLOUDY    71  52  50 E10       30.07F
BURLINGTON CO  PTSUNNY   75  54  47 S16       30.07F
LIMON CO       CLOUDY    71  47  42 S12       30.11F
$$

...UNOFFICIAL OBSERVATIONS...

CITY           SKY/WX    TMP DP  RH WIND       PRES   REMARKS
COLBY KS       PTSUNNY   77  59  53 S7        30.07F
LENORA KS        N/A     74  32  21 MISG        N/A
NORTON KS      CLOUDY    73  52  46 E6        30.04F
SHARON SPRINGS   N/A     76  60  57 S13G22      N/A
TRENTON NEB      N/A     66  32  28 MISG        N/A
KIT CARSON CO    N/A     76  54  46 MISG        N/A
YUMA CO          N/A     60  54  80 N5G17       N/A
$$




USA.gov is the U.S. government's official web portal to all federal, state and local government web resources and services.